Wind_Speed
14 14 14 15 15 14 14 14 14 13 13 13 13 13 12 12 12 12 12 11 11 11 11 10 10 9 9 9 8 7 7 6 6 5 5 4 4 4 4 4 3 3 2
16 16 15 16 16 16 16 16 15 15 14 14 14 14 13 13 13 13 13 13 12 12 12 12 12 11 10 10 10 9 9 8 7 7 6 6 5 5 5 5 4 4 4
17 17 17 17 17 17 17 17 17 16 16 16 15 15 15 15 14 14 15 14 14 13 13 13 12 12 12 11 11 11 10 10 9 8 8 7 7 6 6 6 5 5 5
19 18 18 18 18 18 18 18 18 18 17 17 17 16 16 16 16 16 16 15 15 14 14 14 14 13 13 13 13 12 12 11 10 10 9 9 8 8 7 7 7 7 6
20 19 19 19 19 19 19 19 18 18 18 18 17 17 17 17 17 17 17 17 16 16 15 15 15 15 14 14 14 14 13 13 13 12 11 11 10 10 9 9 9 8 8
21 21 20 20 20 20 19 19 19 18 18 18 18 18 18 18 18 18 18 18 17 17 17 16 16 15 16 15 15 15 15 15 15 14 14 13 12 12 11 11 11 11 10
22 22 22 22 21 21 20 20 19 19 19 19 19 19 19 19 19 19 19 19 18 18 18 17 17 17 16 17 16 16 16 16 16 16 15 15 15 14 14 14 13 13 13
23 23 23 23 22 22 21 21 21 20 20 20 20 20 20 20 20 20 20 20 20 19 19 19 18 18 18 18 18 18 18 17 17 17 17 17 17 16 16 16 15 15 15
24 24 24 24 23 22 22 22 22 21 21 21 21 21 21 21 21 21 21 21 21 21 20 20 20 19 19 19 19 19 19 19 19 18 18 18 18 18 18 18 18 17 17
25 25 25 24 24 24 23 23 23 23 22 22 22 22 22 22 22 22 22 22 22 22 21 21 20 20 20 20 20 20 20 20 20 19 19 19 19 20 20 20 19 19 19
26 26 26 26 25 25 24 24 24 23 23 23 23 23 23 23 23 23 23 23 23 24 23 22 22 21 21 21 21 21 21 21 21 21 21 21 21 21 21 21 21 20 20
26 26 27 26 26 25 25 24 24 24 24 24 23 23 23 24 24 24 24 24 24 24 24 24 23 23 23 23 23 23 23 23 23 23 23 22 22 23 23 23 22 22 22
27 27 26 27 26 26 25 25 24 24 24 24 24 24 24 24 24 24 24 24 25 25 25 25 24 24 24 24 24 24 24 24 24 24 24 24 24 24 25 25 24 24 24
28 28 28 27 27 26 26 25 25 25 25 25 25 25 26 26 26 26 25 25 25 26 26 26 26 26 25 25 25 25 25 25 25 25 25 26 26 26 26 26 26 26 26
29 29 29 28 28 27 26 26 26 26 26 26 26 26 27 27 27 27 27 26 25 25 27 27 27 26 26 26 26 27 27 26 27 27 27 26 27 27 27 27 27 27 27
29 30 30 29 29 29 28 27 27 28 27 27 27 26 27 27 26 27 28 27 27 26 26 27 28 27 27 27 27 27 27 27 27 28 28 27 28 28 28 28 29 29 29
30 30 30 30 30 30 29 29 29 28 28 28 28 28 28 28 28 28 28 28 28 28 28 28 28 28 27 27 27 27 28 28 28 29 30 30 29 30 30 31 30 30 31
31 31 31 31 31 31 31 31 30 30 30 29 29 30 30 30 29 29 28 28 28 29 28 28 29 29 29 28 28 29 29 28 29 30 30 30 31 31 31 32 33 33 33
32 32 32 32 32 32 32 32 31 31 30 30 30 30 30 30 29 29 29 29 29 29 29 29 30 30 30 30 30 30 30 30 30 30 31 31 32 32 33 34 35 35 35
34 34 34 34 34 34 33 33 32 31 31 31 31 31 31 30 30 30 30 30 30 30 30 30 30 31 31 31 31 31 31 30 31 32 32 32 32 33 34 34 35 35 36
36 36 36 36 35 35 35 35 34 33 33 33 33 32 32 31 31 31 31 31 32 32 32 32 31 31 31 31 32 32 32 31 31 32 32 33 34 34 34 34 35 36 36
37 37 37 37 37 37 37 36 36 36 35 35 34 34 33 33 33 32 31 32 32 33 32 32 32 32 31 31 32 32 32 32 32 32 32 33 34 34 34 35 35 36 37
38 38 38 38 38 38 38 38 38 37 37 36 36 35 35 35 34 33 33 33 33 33 33 32 32 32 32 33 33 33 33 33 33 33 33 34 34 35 35 35 36 37 37
39 39 39 39 39 39 39 39 39 38 38 37 37 37 36 36 35 35 34 34 34 34 34 33 33 32 33 33 34 34 34 34 34 34 34 35 35 35 35 35 36 37 38
40 39 39 40 40 40 40 40 40 39 39 38 37 37 37 37 36 36 36 36 35 35 35 35 34 34 33 34 34 35 35 36 35 35 35 36 36 36 37 37 37 37 38
40 40 40 40 40 40 40 40 41 40 39 39 38 38 38 38 38 37 38 37 36 36 36 36 36 35 35 35 36 36 36 37 37 37 37 37 37 36 37 37 37 37 38
Wind_Direction
262 262 263 262 262 261 260 258 255 252 249 247 246 244 243 242 242 241 242 241 241 241 240 239 238 237 236 234 233 231 230 229 229 228 225 221 218 219 219 217 212 206 212
263 263 264 263 262 261 259 258 256 254 251 249 248 247 246 245 244 243 243 244 243 243 242 242 242 241 239 237 236 236 235 234 233 229 228 228 229 229 228 229 226 222 221
263 264 264 264 263 262 260 257 256 255 253 251 250 249 248 247 246 245 244 245 246 245 244 244 243 244 242 239 238 237 236 236 235 232 231 231 232 233 230 230 231 231 229
264 264 264 264 263 262 260 258 256 255 254 252 251 250 250 248 247 246 245 246 245 246 247 246 245 244 244 242 240 239 238 236 235 235 233 233 235 237 237 236 236 239 238
265 265 264 263 263 262 261 259 258 256 254 253 252 252 251 250 248 247 247 246 246 246 247 247 247 246 245 244 242 241 240 239 239 238 238 238 239 241 241 241 241 243 242
264 264 264 263 262 261 260 259 258 256 254 253 253 253 252 251 250 249 248 248 248 248 248 247 247 248 247 245 245 244 243 243 243 242 242 242 243 244 244 244 245 247 247
263 264 263 263 262 261 260 259 258 256 255 254 253 254 253 252 251 250 250 249 249 249 248 248 248 248 248 248 247 246 246 245 246 245 245 245 245 246 247 246 247 248 250
263 263 263 263 262 261 260 258 257 256 254 254 254 254 254 253 252 251 250 250 250 250 250 249 250 250 250 249 248 248 249 248 247 247 248 247 247 247 248 249 249 250 251
262 263 263 262 261 259 259 257 256 256 255 255 254 255 255 255 254 252 251 251 251 251 252 251 251 251 250 250 251 250 250 250 248 248 249 249 250 249 250 250 251 252 253
262 262 261 261 260 259 258 257 256 256 256 256 255 255 255 255 254 253 252 252 252 251 252 251 252 252 252 252 253 252 252 252 250 250 250 250 251 251 251 252 253 254 254
262 260 259 260 260 259 258 256 255 255 255 255 255 255 254 254 254 254 253 253 253 252 252 252 252 254 253 253 253 254 254 254 253 252 252 252 252 252 253 254 255 255 254
261 260 258 259 259 258 257 256 256 255 255 255 256 255 255 255 255 255 255 255 254 253 252 253 253 254 255 254 255 255 254 255 254 253 253 253 254 254 254 255 255 256 256
260 260 259 258 256 257 256 256 256 256 256 256 256 257 256 256 256 255 256 257 255 254 253 254 253 254 255 256 256 256 255 256 256 254 254 254 255 256 257 257 257 257 258
260 260 259 258 256 255 256 256 256 257 257 257 257 257 256 256 257 257 257 257 256 254 253 253 254 254 256 256 257 257 257 256 256 256 256 255 255 256 258 258 258 258 259
260 259 258 258 257 256 256 257 256 257 257 256 257 258 257 257 257 258 257 256 256 255 254 253 255 255 257 258 258 258 258 258 257 257 257 257 257 257 257 258 258 259 261
259 257 257 256 256 257 257 257 257 257 257 256 257 257 257 256 256 257 257 256 256 256 255 254 255 256 258 260 260 259 259 259 258 259 258 257 258 258 258 259 258 259 260
258 257 256 255 255 257 257 257 257 256 257 258 258 257 257 257 257 257 257 257 256 257 256 255 256 257 259 260 261 261 260 261 259 259 258 257 258 259 259 259 259 259 261
257 256 255 254 255 256 257 257 256 256 256 257 258 257 256 256 257 257 258 257 257 257 257 257 257 258 259 260 262 262 262 264 262 260 259 259 259 260 260 260 260 261 262
258 257 256 255 255 256 256 257 256 255 255 257 256 256 256 256 256 257 257 258 258 258 258 257 257 259 259 260 261 262 263 263 263 262 261 259 259 260 261 261 261 262 263
258 257 256 255 255 256 256 256 256 256 256 256 256 255 255 255 256 257 258 258 258 259 260 259 259 259 260 260 261 262 263 263 261 261 262 261 260 261 262 263 263 263 263
258 257 256 256 256 256 256 256 256 256 257 257 256 255 255 255 257 257 259 259 259 260 261 259 260 261 261 262 263 262 262 262 261 261 262 262 261 262 264 263 264 264 264
258 258 257 256 256 256 255 255 256 257 257 257 256 255 256 256 257 258 259 260 259 259 260 262 263 263 263 263 264 263 262 261 261 262 262 262 263 264 264 264 265 265 265
258 258 257 256 256 256 256 255 256 256 257 257 257 256 256 257 257 258 259 259 258 258 259 262 264 264 264 264 264 264 262 262 262 262 263 265 266 266 265 264 265 265 265
258 258 257 256 256 256 255 255 255 256 256 256 256 255 255 257 257 257 258 258 258 260 261 263 264 265 265 265 265 264 263 264 264 263 264 266 266 267 267 266 267 266 265
259 258 257 256 255 255 255 255 255 255 255 254 254 254 254 256 256 257 257 259 259 260 261 262 263 264 265 265 265 265 264 264 265 265 265 266 267 267 267 267 268 269 269
259 258 257 256 255 254 254 254 254 254 253 253 252 253 254 255 256 257 257 258 258 259 260 262 263 264 264 265 265 265 264 264 265 266 267 267 268 268 268 269 269 269 270
Height
5834 5834 5835 5835 5836 5836 5837 5837 5838 5839 5839 5840 5840 5841 5842 5842 5843 5844 5845 5845 5846 5847 5848 5849 5849 5850 5851 5852 5852 5853 5854 5855 5855 5856 5857 5857 5858 5858 5859 5860 5861 5861 5862
5832 5832 5832 5833 5833 5834 5834 5835 5836 5836 5837 5837 5838 5839 5840 5840 5841 5842 5843 5844 5845 5845 5846 5847 5848 5849 5849 5850 5851 5852 5853 5854 5854 5855 5856 5857 5857 5858 5858 5859 5860 5861 5861
5829 5829 5830 5830 5830 5831 5831 5832 5833 5834 5834 5835 5836 5836 5837 5838 5839 5840 5841 5842 5843 5843 5844 5845 5846 5847 5848 5849 5850 5851 5852 5852 5853 5854 5855 5856 5857 5857 5858 5859 5859 5860 5861
5826 5826 5826 5827 5827 5828 5828 5829 5830 5830 5831 5832 5833 5834 5834 5835 5836 5837 5838 5839 5840 5841 5842 5843 5844 5845 5846 5847 5848 5849 5850 5851 5852 5853 5854 5855 5855 5856 5857 5858 5858 5859 5860
5822 5823 5823 5823 5824 5824 5825 5826 5826 5827 5828 5829 5830 5831 5831 5832 5833 5834 5835 5836 5837 5839 5840 5841 5842 5843 5844 5845 5846 5847 5848 5849 5850 5851 5852 5853 5854 5855 5856 5856 5857 5858 5859
5818 5819 5819 5820 5820 5821 5821 5822 5823 5824 5825 5825 5826 5827 5828 5829 5830 5831 5832 5833 5835 5836 5837 5838 5839 5840 5841 5842 5843 5844 5845 5847 5848 5849 5850 5851 5852 5853 5854 5855 5855 5856 5857
5814 5815 5815 5816 5816 5817 5818 5818 5819 5820 5821 5822 5823 5824 5825 5826 5827 5828 5829 5830 5831 5833 5834 5835 5836 5837 5838 5839 5840 5841 5843 5844 5845 5846 5848 5849 5850 5851 5851 5852 5853 5854 5855
5810 5810 5811 5811 5812 5813 5813 5814 5815 5816 5817 5818 5819 5820 5821 5822 5823 5824 5825 5826 5828 5829 5830 5831 5833 5834 5835 5836 5837 5838 5840 5841 5842 5844 5845 5846 5847 5848 5849 5850 5851 5851 5852
5806 5806 5806 5807 5807 5808 5809 5810 5811 5812 5813 5814 5815 5816 5817 5818 5819 5820 5821 5822 5824 5825 5826 5828 5829 5830 5832 5833 5834 5835 5836 5838 5839 5840 5842 5843 5844 5845 5846 5846 5847 5848 5849
5801 5801 5801 5802 5803 5803 5804 5805 5806 5807 5808 5809 5810 5811 5812 5813 5814 5815 5817 5818 5819 5821 5822 5824 5825 5826 5828 5829 5830 5831 5833 5834 5835 5837 5838 5839 5840 5841 5842 5843 5844 5845 5846
5795 5796 5796 5797 5798 5798 5799 5800 5801 5802 5803 5804 5805 5806 5807 5808 5809 5811 5812 5813 5815 5816 5818 5819 5820 5822 5823 5825 5826 5827 5829 5830 5831 5833 5834 5835 5836 5837 5838 5839 5840 5841 5842
5789 5790 5791 5791 5792 5793 5794 5795 5796 5797 5798 5799 5800 5801 5802 5803 5804 5806 5807 5809 5810 5811 5813 5814 5816 5817 5819 5820 5821 5823 5824 5825 5827 5828 5829 5831 5832 5833 5834 5835 5836 5837 5838
5784 5784 5785 5786 5787 5788 5789 5790 5791 5792 5793 5794 5795 5796 5798 5799 5800 5801 5802 5803 5805 5806 5808 5809 5811 5812 5814 5815 5816 5817 5819 5820 5822 5823 5824 5826 5827 5828 5829 5830 5831 5832 5833
5778 5778 5779 5780 5781 5782 5784 5784 5785 5787 5788 5789 5790 5791 5792 5793 5794 5796 5797 5798 5799 5801 5803 5804 5805 5807 5808 5809 5810 5812 5813 5815 5816 5817 5819 5820 5821 5823 5824 5825 5826 5827 5828
5772 5772 5773 5774 5775 5777 5778 5779 5780 5781 5782 5783 5784 5785 5786 5788 5789 5790 5791 5793 5794 5795 5797 5799 5800 5801 5802 5803 5805 5806 5807 5809 5810 5812 5813 5814 5815 5817 5818 5819 5820 5821 5822
5765 5766 5767 5768 5769 5770 5771 5773 5774 5774 5776 5777 5778 5779 5780 5781 5783 5784 5785 5787 5788 5790 5791 5793 5794 5795 5797 5798 5799 5800 5801 5803 5804 5805 5807 5808 5809 5810 5812 5813 5814 5815 5816
5758 5759 5760 5761 5762 5763 5765 5766 5767 5768 5769 5770 5772 5773 5774 5775 5777 5778 5779 5780 5782 5783 5785 5787 5788 5789 5791 5792 5793 5794 5795 5796 5797 5799 5800 5801 5802 5804 5805 5806 5807 5808 5809
5750 5751 5752 5754 5755 5756 5757 5759 5760 5761 5762 5764 5765 5766 5767 5769 5770 5772 5773 5774 5775 5777 5779 5780 5782 5783 5785 5786 5787 5788 5789 5790 5791 5792 5793 5794 5795 5797 5798 5799 5800 5801 5802
5742 5743 5745 5746 5747 5749 5750 5751 5752 5754 5755 5756 5758 5759 5760 5762 5763 5765 5766 5767 5769 5770 5772 5774 5775 5777 5778 5779 5780 5781 5782 5783 5784 5785 5786 5787 5788 5789 5790 5791 5792 5793 5794
5733 5735 5736 5738 5739 5740 5742 5743 5744 5746 5747 5749 5750 5751 5753 5754 5756 5758 5759 5760 5762 5763 5765 5767 5768 5770 5771 5772 5773 5774 5775 5776 5777 5777 5778 5779 5780 5781 5782 5783 5783 5784 5785
5724 5726 5727 5729 5730 5732 5733 5735 5736 5738 5739 5741 5742 5744 5745 5747 5748 5750 5752 5753 5755 5756 5758 5759 5761 5762 5763 5764 5765 5766 5767 5768 5769 5770 5771 5771 5772 5773 5773 5774 5774 5775 5776
5714 5716 5717 5719 5721 5722 5724 5726 5727 5729 5730 5732 5734 5736 5737 5739 5741 5742 5744 5746 5747 5749 5750 5752 5753 5754 5755 5756 5758 5758 5759 5761 5761 5762 5763 5763 5764 5764 5764 5765 5766 5766 5767
5704 5706 5707 5709 5711 5713 5714 5716 5718 5719 5721 5723 5726 5728 5729 5731 5733 5734 5736 5738 5739 5741 5743 5744 5745 5746 5747 5748 5749 5750 5751 5752 5753 5754 5754 5755 5755 5755 5756 5756 5757 5757 5758
5693 5695 5696 5698 5700 5702 5704 5706 5708 5710 5712 5714 5716 5718 5721 5722 5724 5726 5728 5729 5731 5733 5734 5735 5736 5738 5738 5739 5740 5741 5743 5744 5745 5745 5746 5746 5746 5747 5747 5747 5748 5748 5749
5682 5684 5685 5687 5689 5691 5693 5696 5698 5700 5702 5704 5707 5709 5711 5713 5715 5717 5719 5721 5723 5724 5726 5727 5728 5729 5730 5731 5731 5732 5733 5734 5735 5736 5737 5737 5737 5738 5738 5738 5739 5739 5739
5671 5672 5674 5676 5678 5680 5682 5685 5687 5689 5692 5694 5697 5699 5701 5704 5706 5708 5710 5712 5713 5715 5716 5718 5719 5720 5721 5722 5722 5723 5724 5725 5726 5726 5727 5728 5728 5729 5729 5729 5729 5729 5730